Location: Strawberry
(45.6646°N, 111.9596°W)
Time: 12:47:45
(UTC+00:00)

XW-2F - Visible Passes

Search period start: 04 December 2022 00:00
Search period end: 14 December 2022 00:00
Orbit: 476 x 495 km, 97.5° (Epoch: 03 December)

Date Brightness Start Highest point End Pass type
(mag) Time Alt. Az. Time Alt. Az. Time Alt. Az.
04 Dec ? 01:20:08 10° S 01:23:36 50° W 01:27:06 10° NNW visible
04 Dec ? 12:47:18 10° E 12:47:52 10° E 12:48:27 10° E visible
05 Dec ? 00:56:06 10° SSE 00:59:39 78° ENE 01:03:14 10° N visible
05 Dec ? 13:54:11 10° NNE 13:57:45 71° ESE 14:01:19 10° S visible
06 Dec ? 00:32:26 10° SE 00:35:46 38° ENE 00:39:06 10° N visible
06 Dec ? 02:07:19 10° SW 02:09:24 15° W 02:11:29 10° NW visible
06 Dec ? 13:30:26 10° NNE 13:33:44 34° E 13:37:00 10° SSE visible
07 Dec ? 01:42:10 10° SSW 01:45:15 27° W 01:48:21 10° NW visible
07 Dec ? 13:07:03 10° NE 13:09:36 18° E 13:12:08 10° SE visible
08 Dec ? 01:17:39 10° S 01:21:09 55° W 01:24:40 10° NNW visible
08 Dec ? 14:15:40 10° N 14:19:12 61° WNW 14:22:43 10° SSW visible
09 Dec ? 00:53:35 10° SSE 00:57:07 72° ENE 01:00:41 10° N visible
09 Dec ? 13:51:37 10° NNE 13:55:11 65° ESE 13:58:44 10° S visible
10 Dec ? 00:29:53 10° SE 00:33:09 35° ENE 00:36:26 10° N visible
10 Dec ? 02:04:31 10° SW 02:06:45 16° W 02:09:01 10° NW visible
10 Dec ? 13:27:49 10° NNE 13:31:03 32° E 13:34:17 10° SSE visible
11 Dec ? 01:39:23 10° SSW 01:42:32 29° W 01:45:42 10° NW visible
11 Dec ? 13:04:25 10° NE 13:06:50 17° E 13:09:14 10° SE visible
12 Dec ? 01:14:51 10° S 01:18:22 60° W 01:21:54 10° NNW visible
12 Dec ? 14:12:48 10° N 14:16:22 67° WNW 14:19:55 10° SSW visible
13 Dec ? 00:50:44 10° SSE 00:54:15 65° ENE 00:57:48 10° N visible
13 Dec ? 13:48:42 10° NNE 13:52:15 59° E 13:55:48 10° S visible
